SAEZSAAR

Guest
Details From SAEZ - Ministro Pistarini (ezeiza)
To SAAR - Rosario (islas Malvinas)
Flight Number -
Tags Decoded
Created
Modified
Stats Distance 198 nm / 366 km
Max Altitude 0 ft / 0 m
Waypoints 4
Social Downloads 5
Likes 0
Share VATSIM

Download

Looking for another format? Having issues loading an existing format? Contact us
Advertisement - Login to hide

Notes

Decoded

Route

SAEZ BIVAM UGALA SAAR

ID Type Via Altitude Latitude Longitude Leg Dist Tot Dist Heading (true) Name
O SAEZ APT - 0 ft / 0 m -34.80841˚ -58.53386˚ - 0 nm - -
BIVAM FIX - 0 ft / 0 m -33.97111˚ -58.94556˚ 54 nm 54 nm 338° / 338° -
UGALA FIX - 0 ft / 0 m -32.59583˚ -59.93389˚ 96 nm 150 nm 329° / 329° -
O SAAR APT - 0 ft / 0 m -32.91677˚ -60.78765˚ 47 nm 197 nm 246° / 246° -

Altitude Profile

Advertisement - Login to hide

Weather


0- 5 10 15 20 25 30 35+ Temperature / ° C

Clouds and Precipitation
Forecast for 2017-12-13 00:00 UTC. Updated 24 minutes ago

Ground ~20,000 ft ~40,000 ft Winds

SAEZ

Details ICAO SAEZ (EZE)
Name Ministro Pistarini (Ezeiza)
Region Argentina
Timezone America/Argentina/Buenos_Aires (UTC-3.0)
Stats Elevation 66 ft / 20 m (AMSL)
Location -34.821380° -58.532731°
Runways 2
Magnetic Variation 8.723° W

METAR

SAEZ 122300Z 06008KT CAVOK 26/14 Q1009

Decode

TAF

TAF TAF SAEZ 121700Z 1318/1418 03012KT CAVOK TX33/1418Z TN20/1409Z BECMG 1401/1403 04008KT BECMG 1413/1415 01012KT

Decode

Departure Runways

ID Width Length Bearing (true) Bearing (mag) Surface Threshold Offset Overrun Length
11 190 ft / 58 m 10,778 ft / 3,285 m 102.20° 110.92° Asphalt 0 ft / 0 m 0 ft / 0 m
17 151 ft / 46 m 9,153 ft / 2,790 m 163.98° 172.70° Asphalt 0 ft / 0 m 98 ft / 30 m
29 190 ft / 58 m 10,778 ft / 3,285 m 282.18° 290.90° Asphalt 0 ft / 0 m 115 ft / 35 m
35 151 ft / 46 m 9,153 ft / 2,790 m 343.98° 352.70° Asphalt 984 ft / 300 m 1,024 ft / 312 m

SAAR

Details ICAO SAAR (ROS)
Name Rosario (Islas Malvinas)
Region Argentina
Timezone America/Argentina/Cordoba (UTC-3.0)
Stats Elevation 85 ft / 26 m (AMSL)
Location -32.903472° -60.784635°
Runways 1
Magnetic Variation 7.840° W

METAR

SAAR 122300Z 05007KT 9999 NSC 28/14 Q1007

Decode

TAF

TAF SAAR 121700Z 1218/1318 03015KT CAVOK TX36/1318Z TN20/1308Z BECMG 1219/1221 02010KT BECMG 1223/1301 07010KT BECMG 1312/1314 02010KT

Decode

Destination Runways

ID Width Length Bearing (true) Bearing (mag) Surface Threshold Offset Overrun Length
02 148 ft / 45 m 9,878 ft / 3,011 m 10.78° 18.62° Concrete 0 ft / 0 m 128 ft / 39 m
20 148 ft / 45 m 9,878 ft / 3,011 m 190.78° 198.62° Concrete 0 ft / 0 m 0 ft / 0 m

Approach Navaids

Runway Type Ident Frequency Range Bearing (true) Bearing (mag) Slope Elevation
20 Localiser RO 109.90 MHz 18 nm / 33 km 190.75° 198.59° - 87 ft / 27 m (AMSL)
20 Glidescope RO 109.90 MHz 10 nm / 19 km 190.78° 198.62° 3.00° 138 ft / 42 m (AMSL)
20 DME RO 109.90 MHz 18 nm / 33 km - - - 138 ft / 42 m (AMSL)
20 DME RO 109.90 MHz 18 nm / 33 km - - - 138 ft / 42 m (AMSL)

Popular Alternatives